Location: Litvinovka
(48.6667°N, 34.3500°E)
Time: 01:39:26
(UTC+00:00)

Cosmos 1655 Rocket - Pass Details

Date: 18 September 2020
Orbit: 971 x 1006 km, 82.9° (Epoch: 23 October)

Event Time Altitude Azimuth Distance (km) Brightness Sun altitude
Rises 19:19:24 0° 349° (N) 3,685 7.8 -31.8°
Reaches altitude 10° 19:21:55 10° 347° (NNW) 2,737 7.0 -32.0°
Enters shadow 19:27:35 68° 304° (NW) 1,053 4.2 -32.6°
